Weather History for Zephyrhills, FL

Change the Weather History Date:

Thursday, March 7, 2013

  Actual Average (KPCM) Record (KPCM)
Temperature  
Mean Temperature 50 °F -  
Max Temperature 68 °F 78 °F 89 °F (1956)
Min Temperature 33 °F 54 °F 34 °F (1954)
Degree Days  
Heating Degree Days 14    
Moisture  
Dew Point 32 °F    
Average Humidity 57    
Maximum Humidity 93    
Minimum Humidity 21    
Precipitation  
Precipitation 0.00 in - - ()
Sea Level Pressure  
Sea Level Pressure 30.21 in    
Wind  
Wind Speed 5 mph (NNW)    
Max Wind Speed 14 mph    
Max Gust Speed -    
Visibility 10 miles    
Events      
Averages and records for this station are not official NWS values.
T = Trace of Precipitation, MM = Missing Value Source: NWS Daily Summary

Daily Weather History Graph

Daily Weather History Graph

Search for Another Location

Airport:

Trip Planner

Search our weather history database for the weather conditions in past years. The results will help you decide how hot, cold, wet, or windy it might be!

Date:

Astronomy

Mar. 07, 2013 Rise Set
Actual Time 6:46 AM EST 6:32 PM EST
Civil Twilight 6:23 AM EST 6:56 PM EST
Nautical Twilight 5:56 AM EST 7:23 PM EST
Astronomical Twilight 5:28 AM EST 7:50 PM EST
Moon 3:27 AM EST (3/7) 2:35 PM EST (3/7)
Length of Visible Light 12h 32m
Length of Day
11h 45m
Waning Crescent, 20% of the Moon is Illuminated
Mar 7
Waning Crescent
Mar 11
New
Mar 19
First Quarter
Mar 27
Full
Apr 3
Last Quarter

Hourly Weather History & Observations

Time (EST) Temp. Windchill Dew Point Humidity Pressure Visibility Wind Dir Wind Speed Gust Speed Precip Events Conditions
12:15 AM 44.6 °F 42.2 °F 32.0 °F 61% 30.18 in 10.0 mi NNW 4.6 mph - N/A   Clear
12:35 AM 44.6 °F 43.1 °F 32.0 °F 61% 30.18 in 10.0 mi NNW 3.5 mph - N/A   Clear
12:55 AM 42.8 °F 41.1 °F 32.0 °F 66% 30.18 in 10.0 mi North 3.5 mph - N/A   Clear
1:15 AM 42.8 °F - 32.0 °F 66% 30.18 in 10.0 mi Calm Calm - N/A   Clear
1:35 AM 41.0 °F 39.0 °F 32.0 °F 70% 30.18 in 10.0 mi North 3.5 mph - N/A   Clear
1:55 AM 39.2 °F - 32.0 °F 75% 30.18 in 10.0 mi Calm Calm - N/A   Clear
2:15 AM 37.4 °F - 32.0 °F 81% 30.18 in 10.0 mi Calm Calm - N/A   Clear
2:35 AM 37.4 °F 34.9 °F 32.0 °F 81% 30.18 in 10.0 mi NNW 3.5 mph - N/A   Clear
2:55 AM 41.0 °F - 32.0 °F 70% 30.17 in 10.0 mi Calm Calm - N/A   Clear
3:15 AM 35.6 °F 32.8 °F 32.0 °F 87% 30.17 in 10.0 mi NNW 3.5 mph - N/A   Clear
3:35 AM 33.8 °F - 30.2 °F 87% 30.17 in 10.0 mi Calm Calm - N/A   Clear
3:55 AM 35.6 °F - 32.0 °F 87% 30.18 in 10.0 mi Calm Calm - N/A   Clear
4:15 AM 35.6 °F 30.7 °F 32.0 °F 87% 30.18 in 10.0 mi North 5.8 mph - N/A   Clear
4:35 AM 37.4 °F 32.8 °F 32.0 °F 81% 30.18 in 10.0 mi North 5.8 mph - N/A   Clear
4:55 AM 37.4 °F 32.8 °F 30.2 °F 75% 30.18 in 10.0 mi North 5.8 mph - N/A   Clear
5:15 AM 37.4 °F 32.8 °F 30.2 °F 75% 30.19 in 10.0 mi North 5.8 mph - N/A   Clear
5:35 AM 37.4 °F 32.8 °F 32.0 °F 81% 30.19 in 10.0 mi North 5.8 mph - N/A   Clear
5:55 AM 35.6 °F 29.9 °F 30.2 °F 81% 30.19 in 10.0 mi North 6.9 mph - N/A   Clear
6:15 AM 37.4 °F 32.1 °F 30.2 °F 75% 30.21 in 10.0 mi North 6.9 mph - N/A   Clear
6:35 AM 37.4 °F 31.4 °F 30.2 °F 75% 30.21 in 10.0 mi North 8.1 mph - N/A   Clear
6:55 AM 37.4 °F 31.4 °F 32.0 °F 81% 30.22 in 10.0 mi North 8.1 mph - N/A   Clear
7:15 AM 37.4 °F 30.8 °F 32.0 °F 81% 30.22 in 10.0 mi North 9.2 mph - N/A   Clear
7:35 AM 39.2 °F 34.2 °F 32.0 °F 75% 30.23 in 10.0 mi North 6.9 mph - N/A   Clear
7:55 AM 41.0 °F 35.8 °F 32.0 °F 70% 30.24 in 10.0 mi North 8.1 mph - N/A   Clear
8:15 AM 42.8 °F 38.0 °F 32.0 °F 66% 30.25 in 10.0 mi North 8.1 mph - N/A   Clear
8:35 AM 44.6 °F 38.4 °F 32.0 °F 61% 30.25 in 10.0 mi NNE 12.7 mph - N/A   Clear
8:55 AM 44.6 °F 38.1 °F 30.2 °F 57% 30.24 in 10.0 mi NNE 13.8 mph - N/A   Clear
9:15 AM 46.4 °F 41.1 °F 30.2 °F 53% 30.25 in 10.0 mi North 11.5 mph - N/A   Clear
9:35 AM 48.2 °F - 28.4 °F 46% 30.26 in 10.0 mi NNE 11.5 mph - N/A   Clear
9:55 AM 50.0 °F - 30.2 °F 47% 30.26 in 10.0 mi North 9.2 mph - N/A   Clear
10:15 AM 51.8 °F - 28.4 °F 41% 30.26 in 10.0 mi North 9.2 mph - N/A   Clear
10:35 AM 51.8 °F - 28.4 °F 41% 30.26 in 10.0 mi NNE 9.2 mph - N/A   Clear
10:55 AM 55.4 °F - 28.4 °F 36% 30.26 in 10.0 mi NNW 6.9 mph - N/A   Clear
11:15 AM 55.4 °F - 28.4 °F 36% 30.26 in 10.0 mi North 6.9 mph - N/A   Clear
11:35 AM 57.2 °F - 28.4 °F 33% 30.25 in 10.0 mi North 6.9 mph - N/A   Clear
11:55 AM 59.0 °F - 28.4 °F 31% 30.24 in 10.0 mi NE 6.9 mph - N/A   Clear
12:15 PM 60.8 °F - 28.4 °F 29% 30.23 in 10.0 mi North 4.6 mph - N/A   Clear
12:35 PM 60.8 °F - 28.4 °F 29% 30.23 in 10.0 mi NW 4.6 mph - N/A   Clear
12:55 PM 62.6 °F - 28.4 °F 27% 30.22 in 10.0 mi NNE 4.6 mph - N/A   Clear
1:15 PM 62.6 °F - 28.4 °F 27% 30.21 in 10.0 mi NNW 4.6 mph - N/A   Clear
1:35 PM 64.4 °F - 28.4 °F 26% 30.20 in 10.0 mi NNW 6.9 mph - N/A   Clear
1:55 PM 64.4 °F - 28.4 °F 26% 30.20 in 10.0 mi NNW 3.5 mph - N/A   Clear
2:15 PM 64.4 °F - 30.2 °F 28% 30.19 in 10.0 mi West 4.6 mph - N/A   Clear
2:35 PM 64.4 °F - 28.4 °F 26% 30.18 in 10.0 mi WNW 4.6 mph - N/A   Clear
2:55 PM 66.2 °F - 28.4 °F 24% 30.17 in 10.0 mi North 5.8 mph - N/A   Clear
3:15 PM 68.0 °F - 28.4 °F 23% 30.17 in 10.0 mi NW 5.8 mph - N/A   Clear
3:35 PM 68.0 °F - 28.4 °F 23% 30.17 in 10.0 mi West 3.5 mph - N/A   Clear
3:55 PM 68.0 °F - 28.4 °F 23% 30.17 in 10.0 mi North 6.9 mph - N/A   Clear
4:15 PM 68.0 °F - 28.4 °F 23% 30.17 in 10.0 mi NNW 5.8 mph - N/A   Clear
4:35 PM 68.0 °F - 26.6 °F 21% 30.17 in 10.0 mi North 5.8 mph - N/A   Clear
4:55 PM 68.0 °F - 28.4 °F 23% 30.16 in 10.0 mi NNW 4.6 mph - N/A   Clear
5:15 PM 68.0 °F - 28.4 °F 23% 30.16 in 10.0 mi West 8.1 mph - N/A   Clear
5:35 PM 62.6 °F - 32.0 °F 32% 30.17 in 10.0 mi WNW 9.2 mph - N/A   Clear
5:55 PM 60.8 °F - 33.8 °F 36% 30.17 in 10.0 mi NW 8.1 mph - N/A   Clear
6:15 PM 59.0 °F - 33.8 °F 39% 30.18 in 10.0 mi WNW 9.2 mph - N/A   Clear
6:35 PM 55.4 °F - 33.8 °F 44% 30.19 in 10.0 mi West 9.2 mph - N/A   Clear
6:55 PM 53.6 °F - 35.6 °F 51% 30.20 in 10.0 mi WNW 6.9 mph - N/A   Clear
8:35 PM 50.0 °F - 37.4 °F 62% 30.23 in 10.0 mi WNW 4.6 mph - N/A   Clear
8:55 PM 48.2 °F - 37.4 °F 66% 30.23 in 10.0 mi Calm Calm - N/A   Clear
9:15 PM 46.4 °F - 39.2 °F 76% 30.24 in 10.0 mi Calm Calm - N/A   Clear
9:35 PM 44.6 °F - 37.4 °F 76% 30.24 in 10.0 mi Calm Calm - N/A   Clear
9:55 PM 42.8 °F - 37.4 °F 81% 30.24 in 10.0 mi Calm Calm - N/A   Clear
10:15 PM 44.6 °F - 41.0 °F 87% 30.23 in 10.0 mi Calm Calm - N/A   Clear
10:35 PM 41.0 °F - 37.4 °F 87% 30.24 in 10.0 mi Calm Calm - N/A   Clear
10:55 PM 41.0 °F - 37.4 °F 87% 30.24 in 10.0 mi Calm Calm - N/A   Clear
11:15 PM 42.8 °F - 41.0 °F 93% 30.25 in 10.0 mi Calm Calm - N/A   Clear
11:35 PM 39.2 °F - 35.6 °F 87% 30.24 in 7.0 mi Calm Calm - N/A   Clear
11:55 PM 39.2 °F - 37.4 °F 93% 30.24 in 10.0 mi Calm Calm - N/A   Clear